Weather Roundup
Issued by NWS Chicago, IL

Home | Current Version | Previous Version | Graphics & Text | Print | Product List | Glossary On
Versions: 1 2 3 4 5 6 7 8 9 10 11 12 13 14 15 16 17 18 19 20 21 22 23 24 25 26 27 28 29 30 31 32 33 34 35 36 37 38 39 40 41 42 43 44 45 46 47 48 49 50
000
NZUS59 KLOT 281503
HRRLOT

CHICAGO AREA WEATHER ROUNDUP
NATIONAL WEATHER SERVICE CHICAGO/ROMEOVILLE IL
1000 AM CDT TUE MAR 28 2017

NOTE: "FAIR" INDICATES FEW OR NO CLOUDS BELOW 12,000 FEET WITH NO
SIGNIFICANT WEATHER AND/OR OBSTRUCTIONS TO VISIBILITY.

* THESE STATIONS ARE NOT UNDER NWS QUALITY CONTROL. THEY ALSO MAY NOT
  REPORT WEATHER SUCH AS PRECIPITATION OR FOG.

ILZ005-006-012>014-019>023-281600-
NORTHEAST ILLINOIS

CITY           SKY/WX    TMP DP  RH WIND       PRES   REMARKS
OHARE          CLOUDY    43  37  79 NE12      30.11R
MIDWAY         CLOUDY    43  37  79 N12G22    30.12R
AURORA         CLOUDY    45  38  76 NE13      30.12R
LANSING*       CLOUDY    40  38  93 N8        30.11R
JOLIET*        CLOUDY    45  39  79 N7        30.12R
WAUKEGAN       CLOUDY    41  37  86 N10G20    30.11R
DUPAGE AIRPORT CLOUDY    42  39  89 NE8       30.11R
WHEELING       CLOUDY    41  38  89 N10       30.13R
MORRIS*        CLOUDY    44  38  78 CALM      30.11R
NORTHERLY ISL    N/A     39  36  89 N13         N/A
$$

WIZ051-052-058>065-066-070>072-281600-
SOUTHEAST WISCONSIN

CITY           SKY/WX    TMP DP  RH WIND       PRES   REMARKS
MILWAUKEE      CLOUDY    42  35  76 N14       30.12R
KENOSHA*       CLOUDY    41  37  86 NE9       30.12R
RACINE*        CLOUDY    41  37  86 N15G21    30.13R
WAUKESHA       CLOUDY    39  34  81 N3        30.13R
WEST BEND      SUNNY     45  36  70 NE9       30.11S
$$

INZ001>003-010>013-019-020-281600-
NORTHWEST INDIANA

CITY           SKY/WX    TMP DP  RH WIND       PRES   REMARKS
GARY*          NOT AVBL
MICHIGAN CITY* NOT AVBL
RENSSELAER*    NOT AVBL
VALPARAISO     CLOUDY    42  39  89 N10       30.09R FOG
$$

LMZ740>746-281600-
SOUTHERN LAKE MICHIGAN

STATION/POSITION TIME  SKY/WX   TEMP WIND        PRES    VSBY
                                AIR  DIR/SP/G
                 (UTC)          (F)  (DEG/KT/KT) (MB)    (MI)
HARRISON CRIB    1440            39  350/ 12/ 14   N/A
BURNHAM HARBOR   1500            40  350/ 10/ 14   N/A
CALUMET HARBOR   1418            39  330/ 11/ 14 1018.8
BURNS HARBOR     1440            38  360/  9/ 11 1019.6R
MICHIGAN CITY    1440            38  360/ 15/ 17   N/A
$$

ABBREVIATIONS USED IN REMARKS
   TC - TEMPERATURE IN CELSIUS
  WCI - WIND CHILL INDEX
   HX - HEAT INDEX
  VSB - VISIBILITY
$$




USA.gov is the U.S. government's official web portal to all federal, state and local government web resources and services.